Regional Weather Roundup
Issued by NWS

Home | Current Version | Previous Version | Text Only | Print | Product List | Glossary On
Versions: 1 2 3 4 5 6 7 8 9 10 11 12 13 14 15 16 17 18 19 20 21 22 23 24 25 26 27 28 29 30 31 32 33 34 35 36 37 38 39 40 41 42 43 44 45 46 47 48 49 50
137
ASUS43 KLSX 222307
RWRMO

WEATHER SUMMARY FOR MISSOURI
NATIONAL WEATHER SERVICE SPRINGFIELD MO
600 PM CDT SAT JUL 22 2017

NOTE: "FAIR" INDICATES FEW OR NO CLOUDS BELOW 12,000 FEET WITH NO
       SIGNIFICANT WEATHER AND/OR OBSTRUCTIONS TO VISIBILITY.
       CURRENT SKY AND/OR WEATHER CONDITIONS ARE NOT AVAILABLE FOR
       CHILLICOTHE AND FARMINGTON.

MOZ001>031-035>038-043-044-053-054-230000-
...NORTHERN AND WESTERN MISSOURI...

CITY           SKY/WX    TMP DP  RH WIND       PRES   REMARKS
KANSAS CTY INT MOSUNNY   98  77  50 NW3       29.79F HX 113
KANSAS C DTWN  SUNNY     99  76  47 S5        29.76F HX 113
LEE`S SUMMIT   SUNNY     99  76  47 W3        29.80F HX 113
ST JOSEPH      SUNNY     93  81  67 N9        29.80F HX 113
CHILLICOTHE      N/A     95  80  61 NW5       29.79F HX 114
KIRKSVILLE     SUNNY     94  79  61 W8        29.80F HX 111

$$
MOZ066>068-077>081-088>096-101>105-230000-
...SOUTHWEST MISSOURI...

CITY           SKY/WX    TMP DP  RH WIND       PRES   REMARKS
SPRINGFIELD    SUNNY     96  74  48 S14       29.87F HX 107
JOPLIN         SUNNY     99  71  40 SW14      29.85F HX 107
BRANSON        MOSUNNY   95  68  41 SW6       29.91F HX  99

$$
MOZ032>034-039>042-045>050-055>058-069>072-230000-
...CENTRAL MISSOURI...

CITY           SKY/WX    TMP DP  RH WIND       PRES   REMARKS
COLUMBIA       SUNNY     99  75  46 W10       29.79F HX 112
JEFFERSON CITY SUNNY    101  72  39 SW12      29.76F HX 110
ROLLA          SUNNY     96  74  48 SW10      29.81S HX 107
SEDALIA        SUNNY     96  79  57 SW12      29.82F HX 114
WHITEMAN AFB   MOSUNNY   99  74  45 SW9       29.79F HX 110
WARRENSBURG    SUNNY     97  73  46 SW5       29.79F HX 107

$$
MOZ051-052-059>065-230000-
...EAST CENTRAL MISSOURI...

CITY           SKY/WX    TMP DP  RH WIND       PRES   REMARKS
ST LOUIS INTL  MOSUNNY  105  69  31 W15       29.76F HX 113
SPIRIT OF STL  MOSUNNY  101  72  39 SW8       29.74F HX 110
ST CHARLES     SUNNY    101  74  41 W8        29.74F HX 113

$$
MOZ072>076-082>087-097>100-106>115-230000-
...SOUTH CENTRAL AND SOUTHEAST MISSOURI...

CITY           SKY/WX    TMP DP  RH WIND       PRES   REMARKS
CAPE GIRARDEAU SUNNY     91  73  55 SW15      29.83S HX  99
FARMINGTON     SUNNY     97  71  42 S15G23    29.82F HX 104
POPLAR BLUFF   SUNNY     93  76  57 SW9       29.85R HX 105
WEST PLAINS    SUNNY     94  63  35 SW10      29.91S HX  95

$$



USA.gov is the U.S. government's official web portal to all federal, state and local government web resources and services.